Location: Albuquerque Trailhead
(34.7934°N, 106.3736°W)
Time: 05:29:02
(UTC+00:00)

Cosmos 1470 - Pass Details

Date: 20 June 2021
Orbit: 519 x 542 km, 82.5° (Epoch: 29 July)

Event Time Altitude Azimuth Distance (km) Brightness Sun altitude
Rises 03:38:00 0° 348° (NNW) 2,701 7.3 -13.5°
Reaches altitude 10° 03:40:12 10° 345° (NNW) 1,803 6.3 -13.9°
Maximum altitude 03:44:05 59° 266° (W) 624 3.3 -14.5°
Enters shadow 03:47:37 12° 188° (S) 1,647 4.9 -15.0°
